Location: ??????
(55.2000°N, 38.3000°E)
Time: 01:47:08
(UTC+00:00)

USA 234 - Pass Details

Date: 15 November 2025
Orbit: 1100 x 1107 km, 123.0° (Epoch: 02 December)

Event Time Altitude Azimuth Distance (km) Brightness Sun altitude
Rises 00:27:58 0° 104° (ESE) 3,925 6.8 -37.9°
Reaches altitude 10° 00:30:27 10° 105° (ESE) 2,968 6.0 -37.6°
Enters shadow 00:35:03 50° 105° (ESE) 1,390 3.9 -37.0°
